DMSP 5D-2 F13 DEB, 40418

Orbit data source: Space-Track

DMSP 5D-2 F13 DEB, 40418 is space debris in SSO originally from a launch on Fri, 24 Mar 1995 UTC launched from the Air Force Western Test Range (AFWTR). Debris objects in space refer to the collection of defunct objects orbiting the Earth. Examples of debris include non-operational satellites, rocket bodies, and fragments generated from explosions, collisions, or faulty payload assembly.

Loading next visibility...
Identifier
40418, 1995-015AF
Orbit
SSO
Country
Flag of USUS
Related business
Manufacturer
Unknown
Mission
Spacecraft
Bus & Motor
Unknown
Mass
Unknown
Launch date (UTC)
1995-03-24 (31 years ago)
Launch vehicle
Unknown
Launch site
Air Force Western Test Range (AFWTR)
Object type
Payload
Rocket body
Debris
Shape & HBR
Unknown shape, 0.1 m
Radar Cross Section
Small (<0.1 m²)

Expand to show TLE details & history
Last TLE update: 15 hours ago

TLE from 15 hours ago
0 DMSP 5D-2 F13 DEB
1 40418U 95015AF  26131.01988472  .00001580  00000-0  59043-3 0  9997
2 40418  98.6456 160.6488 0009554  88.9840 271.2438 14.33244748581911
Epoch: 2026-05-11T00:28Z
TLE epoch observation values (Epoch: 2026-05-11T00:28:38.039Z)
Latitude
-0.0001°
Longitude
-75.3243°
Altitude
783.698 km
Speed
7.462 km/s
True Right ascension
10h 42m 35s
True Declination
0° 00' 00"
Sunlit
Object was in daylight at epoch
Visualization orbit readout
Latitude
Unknown
Longitude
Unknown
Altitude
Unknown
Speed
Unknown
Apparent Right ascension
Unknown
Apparent Declination
Unknown
Sunlit
N/A
Visualization observer readout
Local Sidereal Time
23:47:36
Azimuth
Unknown
Elevation
Unknown
Doppler factor
Unknown
Orbital elements
Apogee altitude
784.88 km
Perigee altitude
771.206 km
Semi-major axis
7,156.18 km
Eccentricity
0.00096
Inclination
98.6456°
RAAN
160.6488°
Arg. of periapsis
88.984°
True anomaly
271.13434°
Mean anomaly
271.2438°
Eccentric anomaly
271.18907°
Mean motion
3.58527 °/min
Orbital period
100.41 mins
BSTAR
0.00059043

Documentation

Showing up to 5 results
|